TUI3762 LOWK-LEPA

Flight info

Callsign TUI3762
Flight time 1h 49m
Altitude 35000
Route BERTA2R BERTA DCT RIFEN DCT OSLOP/N0440F370 DCT BENUS DCT UNITA DCT PIDAD DCT TALEP DCT RARQU DCT BALEN UT250 RIXOT RIXOT2P
Aircraft B738/M-SDE2E3FGHIRWXY/LB2

Departure

Time 2026-04-25 19:36
Airport Klagenfurt Airport (LOWK)

Arrival

Time 2026-04-25 21:25
Airport Palma de Mallorca Airport (LEPA)
Time Latitude Longitude Altitude Speed Heading
2026-04-25 18:34 46.64817 14.32542 1515 ft 0 kts 75°
2026-04-25 19:28 46.64820 14.32558 1515 ft 3 kts 75°
2026-04-25 19:28 46.64825 14.32597 1516 ft 3 kts 97°
2026-04-25 19:28 46.64795 14.32624 1514 ft 7 kts 164°
2026-04-25 19:29 46.64732 14.32649 1512 ft 11 kts 159°
2026-04-25 19:29 46.64661 14.32723 1511 ft 13 kts 136°
2026-04-25 19:29 46.64607 14.32779 1510 ft 6 kts 151°
2026-04-25 19:29 46.64594 14.32789 1510 ft 0 kts 152°
2026-04-25 19:30 46.64593 14.32790 1509 ft 0 kts 152°
2026-04-25 19:30 46.64582 14.32798 1509 ft 3 kts 151°
2026-04-25 19:31 46.64546 14.32825 1508 ft 9 kts 153°
2026-04-25 19:31 46.64479 14.32873 1507 ft 12 kts 153°
2026-04-25 19:31 46.64414 14.32965 1506 ft 14 kts 110°
2026-04-25 19:31 46.64391 14.33103 1508 ft 13 kts 103°
2026-04-25 19:32 46.64362 14.33246 1508 ft 15 kts 107°
2026-04-25 19:32 46.64330 14.33404 1507 ft 17 kts 107°
2026-04-25 19:32 46.64291 14.33588 1505 ft 20 kts 107°
2026-04-25 19:32 46.64261 14.33735 1503 ft 24 kts 105°
2026-04-25 19:33 46.64188 14.34100 1502 ft 31 kts 106°
2026-04-25 19:33 46.64119 14.34437 1498 ft 36 kts 106°
2026-04-25 19:33 46.64048 14.34791 1493 ft 37 kts 106°
2026-04-25 19:33 46.63972 14.35163 1487 ft 38 kts 105°
2026-04-25 19:34 46.63948 14.35432 1486 ft 12 kts 94°
2026-04-25 19:34 46.63921 14.35423 1485 ft 0 kts 281°
2026-04-25 19:35 46.63921 14.35422 1485 ft 0 kts 281°
2026-04-25 19:35 46.63938 14.35324 1487 ft 35 kts 285°
2026-04-25 19:36 46.64090 14.34581 1496 ft 115 kts 285°
2026-04-25 19:36 46.64375 14.33147 1566 ft 173 kts 287°
2026-04-25 19:36 46.64700 14.31490 2354 ft 174 kts 287°
2026-04-25 19:36 46.65067 14.29786 3081 ft 185 kts 289°
2026-04-25 19:37 46.65470 14.28002 3811 ft 191 kts 289°
2026-04-25 19:37 46.65888 14.26081 4356 ft 208 kts 288°
2026-04-25 19:37 46.66329 14.23998 4907 ft 227 kts 288°
2026-04-25 19:37 46.66804 14.21747 5552 ft 241 kts 288°
2026-04-25 19:38 46.67132 14.19296 6176 ft 258 kts 271°
2026-04-25 19:38 46.66793 14.16680 6803 ft 275 kts 249°
2026-04-25 19:38 46.65806 14.14273 7610 ft 284 kts 233°
2026-04-25 19:38 46.64367 14.12263 8447 ft 291 kts 214°
2026-04-25 19:39 46.62511 14.11181 9270 ft 297 kts 188°
2026-04-25 19:39 46.60459 14.11265 10101 ft 301 kts 167°
2026-04-25 19:39 46.58484 14.12309 10890 ft 306 kts 150°
2026-04-25 19:39 46.56860 14.14295 11618 ft 310 kts 125°
2026-04-25 19:40 46.55951 14.17122 12357 ft 312 kts 100°
2026-04-25 19:40 46.55783 14.20253 12995 ft 316 kts 88°
2026-04-25 19:40 46.55455 14.23497 13341 ft 338 kts 110°
2026-04-25 19:40 46.54157 14.26389 13781 ft 353 kts 137°
2026-04-25 19:41 46.52055 14.28238 14241 ft 362 kts 163°
2026-04-25 19:41 46.49556 14.28616 14875 ft 363 kts 188°
2026-04-25 19:41 46.47171 14.27530 15085 ft 359 kts 212°
2026-04-25 19:41 46.45838 14.26149 15080 ft 354 kts 223°
2026-04-25 19:42 46.43441 14.22913 15068 ft 351 kts 226°
2026-04-25 19:42 46.41635 14.20525 15070 ft 352 kts 224°
2026-04-25 19:42 46.39761 14.18222 15061 ft 353 kts 222°
2026-04-25 19:42 46.37835 14.15994 15052 ft 353 kts 220°
2026-04-25 19:43 46.35887 14.13823 15065 ft 354 kts 220°
2026-04-25 19:43 46.33929 14.11680 15072 ft 354 kts 219°
2026-04-25 19:43 46.31944 14.09524 15064 ft 353 kts 219°
2026-04-25 19:43 46.29997 14.07412 15059 ft 355 kts 219°
2026-04-25 19:44 46.27978 14.05217 15570 ft 364 kts 219°
2026-04-25 19:44 46.25969 14.03038 16637 ft 358 kts 220°
2026-04-25 19:44 46.23993 14.00894 17390 ft 361 kts 220°
2026-04-25 19:44 46.21976 13.98701 18110 ft 364 kts 220°
2026-04-25 19:45 46.19947 13.96496 18834 ft 366 kts 220°
2026-04-25 19:45 46.17911 13.94286 19507 ft 369 kts 220°
2026-04-25 19:45 46.15885 13.92090 20190 ft 371 kts 220°
2026-04-25 19:45 46.13813 13.89846 20820 ft 374 kts 220°
2026-04-25 19:46 46.11717 13.87580 21480 ft 376 kts 220°
2026-04-25 19:46 46.09616 13.85310 22078 ft 379 kts 220°
2026-04-25 19:46 46.07511 13.83038 22665 ft 382 kts 220°
2026-04-25 19:46 46.05396 13.80758 23259 ft 384 kts 220°
2026-04-25 19:47 46.03250 13.78446 23803 ft 387 kts 220°
2026-04-25 19:47 46.01089 13.76121 24364 ft 389 kts 220°
2026-04-25 19:47 45.98941 13.73811 24918 ft 390 kts 220°
2026-04-25 19:47 45.96739 13.71446 25415 ft 393 kts 220°
2026-04-25 19:48 45.94572 13.69120 25909 ft 395 kts 220°
2026-04-25 19:48 45.92343 13.66730 26388 ft 398 kts 220°
2026-04-25 19:48 45.90137 13.64368 26875 ft 400 kts 220°
2026-04-25 19:48 45.87941 13.61966 27298 ft 402 kts 222°
2026-04-25 19:49 45.85833 13.59334 27798 ft 401 kts 227°
2026-04-25 19:49 45.84553 13.57447 28353 ft 394 kts 231°
2026-04-25 19:49 45.82231 13.53459 29359 ft 383 kts 235°
2026-04-25 19:49 45.80659 13.50472 30117 ft 375 kts 237°
2026-04-25 19:50 45.77699 13.44604 31776 ft 352 kts 237°
2026-04-25 19:50 45.76264 13.41735 31956 ft 358 kts 238°
2026-04-25 19:51 45.73316 13.35766 32090 ft 374 kts 239°
2026-04-25 19:51 45.70462 13.29420 32202 ft 391 kts 240°
2026-04-25 19:52 45.67889 13.23605 32330 ft 405 kts 240°
2026-04-25 19:52 45.66381 13.20225 32555 ft 409 kts 239°
2026-04-25 19:52 45.64848 13.16815 33021 ft 407 kts 239°
2026-04-25 19:52 45.63317 13.13426 33446 ft 406 kts 239°
2026-04-25 19:53 45.61793 13.10065 33855 ft 405 kts 239°
2026-04-25 19:53 45.60280 13.06734 34238 ft 404 kts 240°
2026-04-25 19:53 45.58740 13.03350 34616 ft 405 kts 239°
2026-04-25 19:53 45.57223 13.00020 34997 ft 404 kts 239°
2026-04-25 19:54 45.55685 12.96648 34992 ft 407 kts 240°
2026-04-25 19:54 45.52602 12.89907 34999 ft 402 kts 239°
2026-04-25 19:55 45.49556 12.83262 35003 ft 404 kts 239°
2026-04-25 19:55 45.46473 12.76551 34996 ft 404 kts 240°
2026-04-25 19:56 45.43405 12.69889 34995 ft 405 kts 240°
2026-04-25 19:56 45.40311 12.63185 35005 ft 405 kts 240°
2026-04-25 19:57 45.37203 12.56466 34997 ft 406 kts 240°
2026-04-25 19:57 45.34119 12.49818 35000 ft 406 kts 240°
2026-04-25 19:58 45.31012 12.43136 34995 ft 405 kts 240°
2026-04-25 19:58 45.27892 12.36440 34997 ft 406 kts 240°
2026-04-25 19:59 45.24785 12.29785 34998 ft 407 kts 239°
2026-04-25 19:59 45.21643 12.23071 34990 ft 408 kts 239°
2026-04-25 19:59 45.20083 12.19744 35114 ft 412 kts 239°
2026-04-25 20:00 45.18490 12.16350 35528 ft 412 kts 239°
2026-04-25 20:00 45.17426 12.14089 35857 ft 410 kts 239°
2026-04-25 20:00 45.15347 12.09674 36430 ft 408 kts 239°
2026-04-25 20:00 45.13759 12.06303 36814 ft 407 kts 239°
2026-04-25 20:01 45.10626 11.99662 36988 ft 408 kts 239°
2026-04-25 20:01 45.07474 11.93003 36985 ft 405 kts 239°
2026-04-25 20:02 45.04342 11.86401 36998 ft 407 kts 239°
2026-04-25 20:02 45.01193 11.79777 36990 ft 405 kts 239°
2026-04-25 20:03 44.98042 11.73160 36985 ft 407 kts 239°
2026-04-25 20:03 44.94878 11.66538 36982 ft 406 kts 239°
2026-04-25 20:04 44.91717 11.59932 36988 ft 408 kts 239°
2026-04-25 20:04 44.88554 11.53341 36991 ft 408 kts 239°
2026-04-25 20:05 44.85368 11.46715 36986 ft 408 kts 239°
2026-04-25 20:05 44.82182 11.40104 36988 ft 409 kts 239°
2026-04-25 20:06 44.78995 11.33507 36993 ft 411 kts 238°
2026-04-25 20:06 44.75787 11.26882 36986 ft 410 kts 238°
2026-04-25 20:07 44.72586 11.20289 36998 ft 411 kts 238°
2026-04-25 20:07 44.69357 11.13651 36994 ft 412 kts 238°
2026-04-25 20:08 44.66134 11.07041 37002 ft 411 kts 238°
2026-04-25 20:08 44.62915 11.00455 37006 ft 411 kts 238°
2026-04-25 20:09 44.59678 10.93844 37003 ft 412 kts 238°
2026-04-25 20:09 44.56436 10.87240 37015 ft 413 kts 238°
2026-04-25 20:10 44.53161 10.80584 36999 ft 413 kts 238°
2026-04-25 20:10 44.49910 10.73992 37035 ft 414 kts 238°
2026-04-25 20:11 44.46636 10.67370 37041 ft 415 kts 238°
2026-04-25 20:11 44.43352 10.60745 37047 ft 414 kts 238°
2026-04-25 20:12 44.40056 10.54106 37053 ft 415 kts 238°
2026-04-25 20:12 44.37320 10.48609 37063 ft 416 kts 238°
2026-04-25 20:13 44.33473 10.40899 37077 ft 415 kts 238°
2026-04-25 20:13 44.30193 10.34339 37086 ft 416 kts 237°
2026-04-25 20:14 44.26862 10.27694 37102 ft 417 kts 237°
2026-04-25 20:14 44.23550 10.21099 37094 ft 417 kts 237°
2026-04-25 20:15 44.20224 10.14493 37075 ft 417 kts 237°
2026-04-25 20:15 44.16909 10.07924 37060 ft 417 kts 237°
2026-04-25 20:16 44.13569 10.01319 37067 ft 417 kts 237°
2026-04-25 20:16 44.10215 9.94704 37073 ft 418 kts 237°
2026-04-25 20:17 44.06857 9.88096 37058 ft 418 kts 237°
2026-04-25 20:17 44.03516 9.81536 37071 ft 418 kts 237°
2026-04-25 20:18 44.00145 9.74931 37060 ft 418 kts 237°
2026-04-25 20:18 43.96781 9.68354 37068 ft 419 kts 237°
2026-04-25 20:19 43.93410 9.61778 37069 ft 420 kts 237°
2026-04-25 20:19 43.90028 9.55197 37070 ft 419 kts 237°
2026-04-25 20:20 43.86659 9.48655 37071 ft 421 kts 237°
2026-04-25 20:20 43.83269 9.42089 37071 ft 420 kts 237°
2026-04-25 20:21 43.79868 9.35516 37070 ft 421 kts 237°
2026-04-25 20:21 43.76469 9.28961 37072 ft 422 kts 236°
2026-04-25 20:22 43.73596 9.23429 37074 ft 422 kts 236°
2026-04-25 20:22 43.69629 9.15811 37073 ft 422 kts 236°
2026-04-25 20:23 43.66185 9.09214 37077 ft 423 kts 236°
2026-04-25 20:23 43.62857 9.02854 37077 ft 423 kts 236°
2026-04-25 20:24 43.59439 8.96335 37080 ft 423 kts 236°
2026-04-25 20:24 43.55991 8.89774 37078 ft 423 kts 236°
2026-04-25 20:25 43.52537 8.83219 37079 ft 423 kts 236°
2026-04-25 20:25 43.49092 8.76689 37079 ft 423 kts 236°
2026-04-25 20:26 43.45413 8.70289 37078 ft 425 kts 229°
2026-04-25 20:26 43.41169 8.64656 37078 ft 426 kts 224°
2026-04-25 20:27 43.36724 8.59268 37078 ft 426 kts 223°
2026-04-25 20:27 43.32280 8.53905 37078 ft 426 kts 223°
2026-04-25 20:28 43.27868 8.48538 37076 ft 425 kts 224°
2026-04-25 20:28 43.23449 8.43131 37075 ft 426 kts 224°
2026-04-25 20:29 43.19030 8.37720 37077 ft 426 kts 224°
2026-04-25 20:29 43.14627 8.32332 37075 ft 426 kts 223°
2026-04-25 20:30 43.10217 8.26944 37075 ft 426 kts 223°
2026-04-25 20:30 43.05805 8.21562 37073 ft 426 kts 223°
2026-04-25 20:31 43.01378 8.16174 37076 ft 425 kts 223°
2026-04-25 20:31 42.96944 8.10788 37072 ft 426 kts 223°
2026-04-25 20:32 42.92518 8.05423 37074 ft 426 kts 223°
2026-04-25 20:32 42.88103 8.00082 37071 ft 426 kts 223°
2026-04-25 20:33 42.83671 7.94731 37072 ft 427 kts 223°
2026-04-25 20:33 42.79943 7.90239 37076 ft 427 kts 223°
2026-04-25 20:34 42.74754 7.83998 37076 ft 428 kts 223°
2026-04-25 20:34 42.70284 7.78634 37076 ft 428 kts 223°
2026-04-25 20:35 42.65811 7.73277 37080 ft 429 kts 223°
2026-04-25 20:35 42.61356 7.67952 37077 ft 429 kts 223°
2026-04-25 20:36 42.56860 7.62588 37079 ft 429 kts 223°
2026-04-25 20:36 42.52399 7.57279 37080 ft 429 kts 223°
2026-04-25 20:37 42.47927 7.51965 37081 ft 429 kts 223°
2026-04-25 20:37 42.43427 7.46628 37081 ft 430 kts 223°
2026-04-25 20:38 42.38963 7.41346 37081 ft 430 kts 223°
2026-04-25 20:38 42.34433 7.35997 37084 ft 430 kts 223°
2026-04-25 20:39 42.29928 7.30686 37084 ft 430 kts 222°
2026-04-25 20:39 42.26167 7.26261 37088 ft 430 kts 222°
2026-04-25 20:40 42.20908 7.20087 37089 ft 430 kts 222°
2026-04-25 20:40 42.16374 7.14774 37083 ft 430 kts 222°
2026-04-25 20:41 42.11882 7.09519 37086 ft 431 kts 222°
2026-04-25 20:41 42.07339 7.04217 37087 ft 430 kts 222°
2026-04-25 20:42 42.02814 6.98945 37087 ft 429 kts 222°
2026-04-25 20:42 41.98355 6.93628 37091 ft 430 kts 223°
2026-04-25 20:43 41.93948 6.88197 37087 ft 429 kts 224°
2026-04-25 20:43 41.89571 6.82793 37086 ft 429 kts 224°
2026-04-25 20:44 41.85173 6.77390 37085 ft 430 kts 224°
2026-04-25 20:44 41.80744 6.71976 37090 ft 430 kts 224°
2026-04-25 20:45 41.76346 6.66617 37081 ft 429 kts 224°
2026-04-25 20:45 41.71912 6.61230 37082 ft 430 kts 224°
2026-04-25 20:46 41.67472 6.55846 37084 ft 430 kts 224°
2026-04-25 20:46 41.63046 6.50491 37085 ft 429 kts 224°
2026-04-25 20:47 41.58588 6.45106 37087 ft 430 kts 224°
2026-04-25 20:47 41.54180 6.39792 37081 ft 429 kts 224°
2026-04-25 20:48 41.49721 6.34428 37081 ft 430 kts 223°
2026-04-25 20:48 41.45277 6.29093 37084 ft 430 kts 223°
2026-04-25 20:49 41.40822 6.23755 37089 ft 430 kts 223°
2026-04-25 20:49 41.36399 6.18464 37084 ft 429 kts 223°
2026-04-25 20:50 41.31940 6.13140 37084 ft 429 kts 223°
2026-04-25 20:50 41.27497 6.07845 37084 ft 429 kts 223°
2026-04-25 20:51 41.23048 6.02556 37084 ft 429 kts 223°
2026-04-25 20:51 41.18616 5.97295 37086 ft 429 kts 223°
2026-04-25 20:52 41.14879 5.92867 37085 ft 429 kts 223°
2026-04-25 20:52 41.09690 5.86731 37087 ft 429 kts 223°
2026-04-25 20:53 41.05608 5.81004 37090 ft 428 kts 233°
2026-04-25 20:53 41.02088 5.74690 37091 ft 428 kts 236°
2026-04-25 20:54 40.98638 5.68358 37090 ft 428 kts 235°
2026-04-25 20:54 40.95106 5.62026 37089 ft 428 kts 234°
2026-04-25 20:55 40.91504 5.55706 37087 ft 428 kts 234°
2026-04-25 20:55 40.87923 5.49503 36853 ft 427 kts 234°
2026-04-25 20:56 40.86098 5.46359 36402 ft 423 kts 234°
2026-04-25 20:56 40.84327 5.43316 35849 ft 420 kts 234°
2026-04-25 20:56 40.82561 5.40287 35333 ft 416 kts 234°
2026-04-25 20:56 40.80796 5.37263 34869 ft 412 kts 234°
2026-04-25 20:57 40.79053 5.34278 34395 ft 416 kts 233°
2026-04-25 20:57 40.77265 5.31218 33896 ft 420 kts 233°
2026-04-25 20:57 40.75506 5.28211 33409 ft 417 kts 233°
2026-04-25 20:57 40.73740 5.25197 32902 ft 414 kts 233°
2026-04-25 20:58 40.71977 5.22192 32407 ft 411 kts 233°
2026-04-25 20:58 40.70247 5.19247 31920 ft 408 kts 233°
2026-04-25 20:58 40.68527 5.16322 31423 ft 405 kts 233°
2026-04-25 20:58 40.66817 5.13415 30946 ft 402 kts 233°
2026-04-25 20:59 40.65118 5.10531 30458 ft 399 kts 233°
2026-04-25 20:59 40.63409 5.07631 29972 ft 396 kts 233°
2026-04-25 20:59 40.61729 5.04782 29493 ft 393 kts 233°
2026-04-25 20:59 40.60060 5.01956 29021 ft 390 kts 233°
2026-04-25 21:00 40.58411 4.99165 28553 ft 388 kts 233°
2026-04-25 21:00 40.57313 4.97309 28240 ft 386 kts 233°
2026-04-25 21:00 40.53492 4.90855 27151 ft 380 kts 233°
2026-04-25 21:01 40.51885 4.88145 26695 ft 377 kts 233°
2026-04-25 21:01 40.50283 4.85447 26241 ft 377 kts 233°
2026-04-25 21:01 40.48669 4.82727 25783 ft 381 kts 233°
2026-04-25 21:01 40.47025 4.79962 25306 ft 381 kts 233°
2026-04-25 21:02 40.45410 4.77247 24849 ft 378 kts 233°
2026-04-25 21:02 40.43790 4.74530 24390 ft 375 kts 233°
2026-04-25 21:02 40.42205 4.71872 23938 ft 373 kts 233°
2026-04-25 21:02 40.40614 4.69207 23483 ft 370 kts 233°
2026-04-25 21:03 40.39046 4.66579 23110 ft 365 kts 234°
2026-04-25 21:03 40.37518 4.63931 23092 ft 361 kts 235°
2026-04-25 21:03 40.36028 4.61245 23089 ft 368 kts 236°
2026-04-25 21:03 40.34533 4.58512 23088 ft 368 kts 236°
2026-04-25 21:04 40.33046 4.55792 23089 ft 366 kts 236°
2026-04-25 21:04 40.31570 4.53098 23090 ft 367 kts 236°
2026-04-25 21:04 40.30076 4.50384 23091 ft 367 kts 236°
2026-04-25 21:04 40.28585 4.47683 23089 ft 367 kts 236°
2026-04-25 21:05 40.27086 4.44976 23090 ft 366 kts 236°
2026-04-25 21:05 40.25595 4.42289 23091 ft 366 kts 236°
2026-04-25 21:05 40.24086 4.39575 23090 ft 367 kts 236°
2026-04-25 21:05 40.22584 4.36876 23090 ft 366 kts 236°
2026-04-25 21:06 40.21088 4.34192 23088 ft 366 kts 235°
2026-04-25 21:06 40.19595 4.31516 23056 ft 365 kts 235°
2026-04-25 21:06 40.18106 4.28847 22683 ft 363 kts 235°
2026-04-25 21:06 40.17113 4.27071 22398 ft 361 kts 234°
2026-04-25 21:07 40.15154 4.23567 21820 ft 358 kts 234°
2026-04-25 21:07 40.13698 4.20965 21381 ft 356 kts 234°
2026-04-25 21:07 40.12230 4.18344 20944 ft 353 kts 234°
2026-04-25 21:07 40.10787 4.15770 20516 ft 351 kts 234°
2026-04-25 21:08 40.09349 4.13207 20085 ft 349 kts 234°
2026-04-25 21:08 40.07942 4.10701 19659 ft 346 kts 234°
2026-04-25 21:08 40.06503 4.08140 19237 ft 343 kts 234°
2026-04-25 21:08 40.05104 4.05652 18819 ft 341 kts 234°
2026-04-25 21:09 40.02316 4.00694 17986 ft 336 kts 234°
2026-04-25 21:09 40.00957 3.98282 17592 ft 334 kts 234°
2026-04-25 21:09 39.99585 3.95849 17172 ft 332 kts 234°
2026-04-25 21:10 39.98224 3.93440 16769 ft 331 kts 234°
2026-04-25 21:10 39.96861 3.91027 16356 ft 329 kts 234°
2026-04-25 21:10 39.95500 3.88619 15959 ft 327 kts 234°
2026-04-25 21:10 39.94163 3.86256 15548 ft 326 kts 234°
2026-04-25 21:11 39.92829 3.83900 15145 ft 324 kts 234°
2026-04-25 21:11 39.91492 3.81542 14746 ft 323 kts 234°
2026-04-25 21:11 39.90171 3.79211 14347 ft 322 kts 234°
2026-04-25 21:11 39.88840 3.76866 13939 ft 320 kts 234°
2026-04-25 21:12 39.87518 3.74539 13547 ft 319 kts 234°
2026-04-25 21:12 39.86214 3.72245 13154 ft 317 kts 234°
2026-04-25 21:12 39.84893 3.69923 12753 ft 316 kts 234°
2026-04-25 21:12 39.84036 3.68416 12493 ft 315 kts 234°
2026-04-25 21:13 39.82298 3.65366 11966 ft 312 kts 234°
2026-04-25 21:13 39.81023 3.63129 11586 ft 311 kts 234°
2026-04-25 21:13 39.79742 3.60884 11198 ft 309 kts 234°
2026-04-25 21:13 39.78451 3.58622 10807 ft 307 kts 233°
2026-04-25 21:14 39.77189 3.56413 10429 ft 306 kts 233°
2026-04-25 21:14 39.75922 3.54197 10065 ft 303 kts 233°
2026-04-25 21:14 39.74690 3.52044 9898 ft 294 kts 233°
2026-04-25 21:14 39.73476 3.49923 9503 ft 294 kts 233°
2026-04-25 21:15 39.72267 3.47812 9149 ft 292 kts 233°
2026-04-25 21:15 39.71059 3.45697 8793 ft 290 kts 235°
2026-04-25 21:15 39.70031 3.43443 8439 ft 288 kts 248°
2026-04-25 21:15 39.69628 3.40958 8115 ft 283 kts 270°
2026-04-25 21:16 39.69716 3.38435 7767 ft 280 kts 277°
2026-04-25 21:16 39.69903 3.35910 7426 ft 278 kts 277°
2026-04-25 21:16 39.70058 3.33438 7089 ft 277 kts 275°
2026-04-25 21:16 39.70171 3.30957 6757 ft 275 kts 274°
2026-04-25 21:17 39.70257 3.28480 6430 ft 274 kts 274°
2026-04-25 21:17 39.70333 3.26024 6099 ft 273 kts 273°
2026-04-25 21:17 39.70407 3.23568 5766 ft 271 kts 273°
2026-04-25 21:17 39.70481 3.21116 5428 ft 270 kts 273°
2026-04-25 21:18 39.70554 3.18710 5098 ft 268 kts 273°
2026-04-25 21:18 39.70628 3.16289 4846 ft 263 kts 273°
2026-04-25 21:18 39.70699 3.13944 4761 ft 254 kts 273°
2026-04-25 21:18 39.70766 3.11705 4685 ft 245 kts 273°
2026-04-25 21:19 39.70790 3.09540 4611 ft 237 kts 267°
2026-04-25 21:19 39.70436 3.07483 4414 ft 235 kts 244°
2026-04-25 21:19 39.69570 3.05695 4168 ft 232 kts 234°
2026-04-25 21:19 39.68641 3.04010 3919 ft 229 kts 236°
2026-04-25 21:20 39.67775 3.02287 3676 ft 226 kts 238°
2026-04-25 21:20 39.67235 3.01141 3577 ft 219 kts 239°
2026-04-25 21:20 39.66255 2.99008 3365 ft 192 kts 239°
2026-04-25 21:20 39.65600 2.97579 3237 ft 183 kts 239°
2026-04-25 21:21 39.64958 2.96180 3127 ft 175 kts 239°
2026-04-25 21:21 39.64331 2.94863 2960 ft 171 kts 238°
2026-04-25 21:21 39.63726 2.93534 2803 ft 170 kts 240°
2026-04-25 21:21 39.63124 2.92207 2659 ft 170 kts 238°
2026-04-25 21:22 39.62509 2.90899 2520 ft 169 kts 238°
2026-04-25 21:22 39.61895 2.89596 2444 ft 167 kts 238°
2026-04-25 21:22 39.61288 2.88309 2220 ft 170 kts 237°
2026-04-25 21:22 39.60686 2.87033 1915 ft 163 kts 237°
2026-04-25 21:23 39.60102 2.85796 1727 ft 158 kts 237°
2026-04-25 21:23 39.59537 2.84601 1524 ft 155 kts 237°
2026-04-25 21:23 39.58973 2.83405 1302 ft 154 kts 237°
2026-04-25 21:23 39.58408 2.82232 1100 ft 151 kts 236°
2026-04-25 21:24 39.57853 2.81096 889 ft 149 kts 237°
2026-04-25 21:24 39.57322 2.79971 715 ft 145 kts 237°
2026-04-25 21:24 39.56797 2.78829 545 ft 147 kts 239°
2026-04-25 21:24 39.56274 2.77711 350 ft 145 kts 237°
2026-04-25 21:25 39.55746 2.76607 139 ft 143 kts 238°
2026-04-25 21:25 39.55246 2.75549 14 ft 127 kts 238°
2026-04-25 21:25 39.54887 2.74789 22 ft 72 kts 239°
2026-04-25 21:25 39.54680 2.74353 29 ft 49 kts 238°
2026-04-25 21:26 39.54559 2.74004 34 ft 38 kts 259°
2026-04-25 21:26 39.54549 2.73794 36 ft 8 kts 270°
2026-04-25 21:26 39.54549 2.73790 36 ft 0 kts 270°
2026-04-25 21:27 39.54549 2.73789 36 ft 1 kts 270°
2026-04-25 21:27 39.54550 2.73730 36 ft 8 kts 278°
2026-04-25 21:28 39.54581 2.73658 36 ft 9 kts 313°
2026-04-25 21:28 39.54637 2.73621 36 ft 8 kts 349°
2026-04-25 21:28 39.54692 2.73591 35 ft 8 kts 330°
2026-04-25 21:28 39.54718 2.73576 35 ft 2 kts
2026-04-25 21:29 39.54734 2.73597 35 ft 3 kts 58°
2026-04-25 21:29 39.54745 2.73619 35 ft 1 kts 59°
2026-04-25 21:29 39.54749 2.73629 35 ft 0 kts 59°
2026-04-25 21:29 39.54753 2.73637 35 ft 0 kts 59°
2026-04-25 21:30 39.54754 2.73638 35 ft 0 kts 59°